User: anonymous   Login
Location: Unspecified
(0.0000°N, 0.0000°E)
Time: 17:26:47
(UTC+00:00)
Language:

FALCON 9 R/B - Orbit

View from above orbital plane
View from above orbital plane
View from above satellite
View from above satellite

Ground track
Ground track

The orbit data is extracted from the following two-line orbital elements,

1 39271U 13055G   18116.18127285  .00007966  00000-0  20012-3 0  9993
2 39271  80.9705  25.0383 0617473 353.7095   5.6574 14.41066434237646
Epoch (UTC): 26 April 2018 04:21:01
Eccentricity: 0.0617473
inclination: 80.9705°
perigee height: 314 km
apogee height: 1195 km
right ascension of ascending node: 25.0383°
argument of perigee: 353.7095°
revolutions per day: 14.41066434
mean anomaly at epoch: 5.6574°
orbit number at epoch: 23764

The dashed part of the orbit path shows where the satellite is in the earth's shadow,  

DLR